Wind_Speed
3 3 3 3 3 3 3 3 4 4 4 5 5 5 6 6 6 6 6 6 6 7 8 9 9 10 10 11 12 13 15 16 15 9 9 11 10 9 9 8 7 4 6 6 7 5 5 6 6 5 4 2 2 2 3 2 1 1 1 2 4 5 5 4 5 4 3 5 5 4 3 3 5 1 1 2 3 6 9 10 7 8 9 12 19 16 10 12
3 4 4 3 4 3 3 4 4 5 5 5 5 6 6 6 7 6 7 7 7 7 8 9 9 10 10 11 12 13 16 17 14 11 13 14 11 9 7 5 5 3 7 8 8 7 5 5 6 6 3 1 2 2 2 2 2 2 2 3 4 4 5 5 7 6 4 5 7 7 6 6 6 5 1 2 6 5 8 11 8 8 9 13 18 17 15 15
5 5 5 3 4 4 4 4 5 5 6 6 6 6 6 7 7 7 7 7 7 7 8 9 9 10 10 10 11 12 15 14 9 7 6 5 4 3 2 2 3 3 7 7 6 8 7 5 3 6 3 2 3 3 2 2 3 4 3 3 5 5 6 7 7 7 5 6 7 6 6 6 7 6 2 5 8 6 8 10 8 9 9 8 9 9 14 17
5 5 5 4 4 5 5 5 5 5 6 6 6 6 7 7 8 8 8 8 8 8 8 9 9 9 9 9 9 10 12 8 3 1 6 6 4 2 2 2 2 3 7 5 4 8 8 7 4 4 3 3 4 3 3 2 2 3 4 4 5 5 7 7 9 9 6 5 5 6 6 7 8 5 3 5 7 6 8 10 9 10 10 9 10 8 5 10
6 6 6 5 5 6 6 6 5 6 7 6 6 7 8 8 8 9 9 9 9 8 8 9 9 9 8 8 7 8 7 3 0 4 8 5 3 1 3 2 1 5 9 5 4 6 6 6 5 3 3 3 4 3 4 6 4 2 4 7 7 6 8 8 9 7 3 4 5 7 7 7 6 5 4 5 7 7 7 9 11 12 11 11 10 10 10 8
7 6 7 6 6 7 7 7 6 6 7 7 7 7 8 9 9 10 10 10 10 9 9 9 9 8 7 6 4 3 3 2 1 4 7 4 2 3 4 2 2 7 9 4 5 5 4 5 5 3 3 4 5 5 6 6 6 4 5 7 7 7 9 9 9 3 2 3 7 7 7 7 8 8 7 7 11 11 9 11 13 14 13 14 12 10 10 10
8 8 8 7 7 7 7 7 7 7 7 7 8 8 9 9 10 11 11 11 11 10 10 9 9 8 7 4 1 0 2 5 7 7 9 8 6 5 4 3 4 9 9 7 8 6 5 5 5 4 4 5 6 7 7 6 5 6 6 6 8 9 11 11 9 5 2 5 8 7 7 8 10 9 8 9 13 13 12 12 14 14 14 14 11 10 10 10
9 8 7 7 7 7 7 7 7 7 8 8 9 10 10 11 11 12 12 13 13 12 11 11 10 8 6 2 1 3 4 7 9 7 8 9 8 6 5 4 7 10 9 10 10 6 5 5 6 4 5 6 6 7 6 6 5 7 7 6 8 8 10 9 8 8 7 7 7 6 8 11 11 9 10 13 15 15 14 14 14 13 12 12 11 11 10 9
10 8 7 7 7 6 6 6 6 7 8 9 10 10 11 11 12 13 13 13 14 14 13 12 10 7 4 1 2 4 4 7 9 7 7 8 7 6 5 5 9 12 9 10 11 9 5 4 5 2 4 5 6 7 6 5 4 5 6 5 6 7 8 9 10 11 10 8 6 6 10 12 9 7 10 14 15 14 13 13 13 12 11 10 10 10 9 9
9 9 9 8 7 6 6 6 6 7 8 9 10 11 11 12 12 13 13 14 14 14 13 12 9 6 4 1 3 5 4 5 6 6 6 6 5 5 6 4 7 11 8 9 11 10 6 5 4 2 3 5 5 6 5 6 4 3 5 7 8 9 10 10 12 15 12 10 10 9 11 11 7 4 7 11 12 11 10 10 9 8 9 8 8 8 8 8
10 11 10 8 6 6 5 6 6 7 8 9 10 11 11 12 13 13 14 14 14 14 13 11 8 5 2 2 5 5 2 3 4 3 4 4 2 4 7 5 6 10 9 9 11 9 7 6 5 3 1 2 3 6 5 4 4 5 6 8 10 11 12 13 14 15 11 8 10 9 9 11 7 5 10 14 13 11 10 10 9 8 8 8 9 9 8 8
11 12 11 8 6 6 5 6 6 6 8 9 10 10 11 12 13 14 14 14 14 14 12 9 6 4 3 3 7 9 6 4 5 4 4 3 3 5 8 8 7 9 9 8 7 5 5 5 6 2 4 2 4 6 3 3 5 4 4 6 12 11 12 15 14 14 12 6 6 5 3 7 7 8 13 15 12 10 10 10 9 8 8 8 9 9 7 8
12 12 10 7 6 6 6 6 6 6 8 9 10 11 11 12 13 13 14 14 13 12 11 8 4 5 3 3 7 14 15 12 10 8 7 5 5 6 9 11 9 8 7 5 3 3 2 3 3 4 6 5 5 3 1 1 2 3 3 5 9 8 9 11 11 11 9 3 9 7 1 4 7 8 10 9 5 6 7 7 9 8 9 9 9 8 8 8
12 11 8 7 6 5 5 5 6 8 9 10 11 11 12 13 13 12 12 12 11 10 9 5 5 6 2 4 5 10 14 14 10 8 7 4 3 4 7 9 9 8 7 3 3 3 2 3 3 4 6 6 5 4 4 3 3 5 6 5 5 4 5 8 8 4 3 1 6 6 2 5 7 9 9 5 1 4 7 8 11 11 11 10 8 8 8 8
11 9 7 6 5 5 5 5 6 9 10 11 12 12 13 13 12 11 10 10 8 6 4 3 8 6 2 6 5 5 8 7 5 4 4 4 4 3 4 6 6 6 6 3 2 2 2 2 1 2 4 5 4 5 6 4 3 5 5 4 4 4 5 8 7 5 6 2 3 6 2 6 8 8 7 6 6 9 10 11 14 14 13 11 9 7 7 7
9 8 7 6 6 5 4 5 7 9 10 11 12 13 13 10 9 8 8 7 5 1 3 3 9 6 4 3 3 3 4 3 6 8 5 6 6 3 6 6 3 4 4 3 2 2 1 1 1 1 3 3 3 4 4 4 4 4 4 5 5 5 6 5 4 3 7 3 3 6 4 5 6 6 8 8 9 11 12 14 16 15 13 11 9 6 6 6
9 8 7 6 5 4 4 6 8 9 11 11 13 13 10 7 5 5 4 2 2 4 3 1 5 6 3 2 2 2 3 4 6 7 5 7 8 5 8 6 4 5 4 2 2 3 3 3 2 1 2 4 3 3 3 4 4 4 4 5 6 6 6 4 3 1 5 4 4 7 7 7 7 8 10 10 10 11 12 15 16 13 10 9 8 6 6 4
8 8 6 6 5 4 5 6 8 10 11 11 13 12 8 6 4 3 2 3 5 3 1 2 2 4 2 2 3 2 5 5 6 4 3 8 9 8 8 5 5 6 5 3 3 4 3 3 3 1 3 4 4 3 4 5 6 5 5 5 6 6 6 6 5 5 4 5 6 7 9 9 8 7 9 10 11 12 13 14 14 11 10 10 8 6 5 7
8 7 5 5 4 4 5 7 8 10 10 10 11 11 8 5 5 3 2 2 2 0 2 2 5 2 3 2 3 5 6 6 5 3 5 8 8 8 7 5 5 6 4 2 4 6 3 2 3 2 4 5 6 7 8 9 9 9 9 7 7 7 7 8 8 8 9 10 9 9 9 8 7 7 10 13 13 13 12 12 12 11 10 8 5 5 7 11
7 6 5 4 3 4 5 7 9 9 9 10 11 10 5 2 3 2 3 5 6 7 7 4 8 6 8 4 5 6 4 6 4 3 7 8 8 8 6 5 4 4 4 3 4 5 5 3 4 5 6 8 9 10 11 10 9 9 9 8 8 7 7 8 9 9 8 8 7 6 8 9 8 9 13 15 13 12 10 10 12 12 6 4 6 6 10 12
5 5 4 2 2 3 5 7 9 8 7 9 11 7 1 2 2 0 1 5 10 13 12 10 11 11 13 7 7 7 2 3 5 5 9 9 9 7 5 5 5 3 6 6 3 2 3 4 5 7 10 11 11 10 11 10 9 8 7 8 8 7 8 9 11 11 6 4 4 5 7 8 9 14 17 15 11 10 10 11 12 6 4 6 7 9 12 11
5 4 3 1 2 4 6 8 9 8 6 6 8 4 3 3 2 1 1 5 7 12 12 13 14 12 15 10 6 7 1 3 5 6 9 9 7 5 5 6 6 4 6 7 3 1 2 5 9 11 11 11 11 10 10 11 8 7 6 6 6 6 7 8 10 9 2 1 3 6 7 7 11 16 17 14 10 9 10 8 2 6 9 8 9 11 12 12
6 6 4 2 2 5 8 9 8 7 5 5 5 3 2 1 2 1 1 3 6 10 10 10 12 10 11 7 6 4 2 5 6 6 12 11 5 3 4 6 6 5 5 6 6 4 4 5 9 12 11 10 10 9 9 9 7 5 5 5 6 5 6 6 4 5 5 3 7 9 7 6 11 15 13 11 9 8 5 4 10 12 12 12 12 12 12 12
8 8 6 3 3 6 9 11 10 5 3 3 3 3 2 2 1 1 1 3 5 6 4 2 4 4 4 2 3 2 4 5 4 5 12 11 5 3 4 6 6 5 6 8 9 8 7 6 4 5 8 9 8 8 8 7 5 5 6 6 6 6 7 6 4 7 7 6 6 6 5 5 8 9 7 6 5 3 5 12 14 12 12 12 13 13 12 12
9 10 8 4 3 6 9 11 8 2 4 1 0 2 3 1 1 1 1 3 4 2 1 1 1 1 1 1 2 1 4 3 2 3 7 4 2 3 3 4 5 6 7 8 10 8 7 7 3 4 5 6 6 6 6 5 4 5 5 4 5 5 5 5 7 7 5 4 3 3 3 3 5 6 6 7 4 4 9 13 12 11 11 11 11 11 11 11
9 10 9 6 4 6 7 6 2 3 4 2 2 3 3 2 1 2 0 2 4 1 1 1 1 1 1 1 2 1 4 2 2 3 3 1 2 1 1 1 2 3 3 3 4 3 2 2 2 2 2 4 5 6 5 4 4 4 3 4 5 5 6 6 7 4 1 3 3 2 2 4 5 5 9 11 2 8 10 12 11 9 10 10 10 9 9 10
14 13 11 9 7 6 4 2 2 3 3 2 3 2 3 2 0 2 1 3 4 2 3 0 0 1 2 2 1 1 1 2 2 1 1 1 1 0 1 1 1 1 1 2 1 1 2 2 3 3 1 3 4 5 4 3 3 3 2 3 5 5 4 3 2 2 4 4 5 5 4 5 4 5 13 12 4 11 9 10 9 8 10 10 9 9 9 9
19 17 15 12 11 9 7 5 3 3 2 1 2 3 3 3 1 1 1 2 2 2 2 0 1 1 2 2 2 1 1 2 2 1 2 2 1 1 1 3 2 1 3 3 2 1 0 3 3 3 3 3 4 4 2 2 2 2 2 1 2 1 2 3 3 4 4 3 4 5 6 3 4 6 11 7 8 9 7 8 8 8 9 8 8 9 9 9
22 20 18 17 14 12 12 10 6 5 5 3 4 5 4 1 1 0 1 2 1 2 1 1 2 2 2 2 3 2 2 1 1 1 1 2 2 0 1 3 4 2 3 5 5 2 1 2 2 3 3 4 4 2 1 1 2 2 2 2 2 4 4 4 4 3 3 3 4 6 7 3 4 6 5 2 8 6 5 7 7 7 7 7 8 8 8 7
23 21 21 21 16 11 10 11 12 11 10 8 6 5 1 1 1 1 3 2 1 2 1 1 1 2 4 3 3 4 3 1 2 2 1 1 1 1 1 1 2 3 2 4 5 4 1 2 2 1 4 4 3 2 3 2 1 1 2 3 4 5 4 4 4 2 1 2 4 7 9 7 3 5 2 5 5 8 8 6 6 7 7 7 7 7 7 6
20 19 20 20 16 11 8 6 9 11 11 10 7 3 2 1 1 3 4 1 1 1 1 2 1 2 4 3 2 4 3 2 4 4 2 1 2 1 2 0 1 2 2 3 5 4 2 2 0 1 4 2 3 1 2 2 1 1 1 2 3 4 1 1 0 1 1 3 3 5 2 7 3 3 2 5 5 8 8 8 8 8 6 6 6 6 6 6
15 15 15 15 14 12 8 4 2 3 6 7 5 3 1 0 2 3 2 0 1 1 0 1 1 2 2 0 1 1 1 3 3 1 1 1 2 3 4 3 1 0 2 1 1 2 3 5 5 2 2 2 4 1 0 1 1 2 2 1 1 2 0 1 0 1 2 3 2 5 7 1 4 6 4 5 7 7 7 8 9 9 8 7 6 5 5 5
11 11 11 13 13 13 11 6 2 1 6 7 3 2 1 1 3 2 3 2 1 1 1 2 1 1 1 1 1 1 1 1 2 1 1 1 0 3 5 5 2 1 2 1 1 2 2 3 6 3 2 3 5 3 2 1 2 4 3 3 3 1 1 2 2 2 3 3 2 4 7 1 4 5 3 6 8 7 10 10 8 9 9 8 6 5 5 5
9 10 11 14 15 15 13 10 4 3 8 7 2 1 2 4 3 1 4 4 0 1 1 2 1 0 0 1 1 2 1 1 3 2 0 1 0 2 4 5 4 2 1 0 1 2 3 3 4 4 1 5 7 4 3 3 3 4 1 2 3 2 2 3 3 3 3 3 5 6 4 2 4 1 2 8 8 7 10 9 8 9 8 7 6 5 5 6
7 8 9 12 15 15 14 11 7 7 9 5 2 3 5 5 2 2 4 2 1 2 1 2 2 2 2 3 3 4 2 1 4 3 2 3 3 3 3 4 6 3 2 1 1 2 3 5 4 3 1 8 7 3 4 5 1 2 2 3 1 3 4 2 2 3 1 2 5 4 2 3 1 4 6 7 7 8 8 7 8 8 7 6 6 5 5 6
5 6 7 8 11 14 14 12 10 10 9 4 3 5 6 5 2 2 2 1 2 4 3 1 1 2 3 3 4 5 2 1 3 2 2 5 5 5 4 2 5 7 5 3 2 1 2 3 3 5 1 4 5 3 4 2 1 0 2 1 3 2 4 1 3 2 1 2 5 3 3 4 1 3 5 7 8 8 6 6 8 7 7 6 5 5 5 5
3 4 5 8 11 12 14 13 12 11 7 3 5 6 4 4 5 4 1 2 1 3 4 1 2 3 4 2 3 3 2 1 2 2 2 3 3 4 5 3 5 9 9 5 2 2 2 3 1 4 3 4 1 5 3 1 3 3 1 2 2 2 3 2 1 1 1 5 5 4 6 6 3 2 3 7 7 7 5 5 6 6 6 5 5 5 5 5
3 4 6 11 15 13 13 15 14 10 4 3 8 8 4 4 5 5 3 4 1 2 3 3 3 2 3 2 3 3 3 0 3 3 2 2 3 2 3 3 2 4 6 5 3 1 1 2 4 3 4 2 3 5 2 3 3 4 3 1 1 1 1 1 1 1 4 6 4 4 8 6 4 3 4 7 7 7 6 5 5 5 5 5 4 4 4 3
1 1 4 8 15 14 13 15 12 7 3 5 8 8 4 4 5 4 4 4 2 3 3 5 4 2 3 3 4 3 6 6 5 4 3 3 3 1 2 2 2 4 5 0 3 1 2 2 2 2 2 2 3 2 2 2 2 3 0 2 2 2 3 2 2 3 4 6 5 5 7 5 1 2 1 7 9 8 7 5 5 5 4 4 3 3 3 2
3 2 2 5 12 15 15 13 8 4 5 7 7 5 3 3 4 4 3 3 3 3 3 5 5 4 4 5 6 4 5 6 5 4 3 2 3 1 4 3 2 3 6 4 1 1 1 3 2 2 2 2 1 2 4 3 1 2 1 2 1 2 1 1 3 3 3 4 5 6 8 4 1 3 3 8 8 7 7 6 5 4 5 5 5 5 5 4
3 2 1 8 14 17 17 11 6 4 5 7 7 6 4 2 1 1 0 0 2 2 1 3 5 5 5 5 6 5 3 4 4 4 3 4 4 1 2 2 2 2 2 2 2 2 1 1 2 2 2 2 3 3 3 3 2 3 2 2 3 2 0 2 5 5 4 5 5 7 8 4 2 3 3 8 6 6 7 6 5 6 6 6 5 5 5 4
3 3 3 10 17 18 15 7 6 4 5 7 5 4 3 1 1 2 1 0 2 2 1 2 5 5 5 6 6 5 3 3 5 4 3 3 3 1 1 2 2 2 2 1 1 1 2 2 1 4 5 5 6 1 3 4 4 4 2 2 2 1 2 3 7 4 2 4 3 5 7 3 2 3 2 6 6 7 7 7 6 6 6 6 5 4 4 4
4 3 4 11 19 17 9 5 6 5 6 6 4 4 3 2 2 3 3 3 3 3 3 3 4 6 6 6 6 6 5 4 5 6 4 3 1 2 1 3 2 3 2 1 0 2 3 2 1 4 5 6 8 4 3 4 4 3 1 1 2 1 1 3 4 1 1 3 3 4 5 2 2 3 1 3 5 5 5 6 7 6 5 5 5 4 4 4
3 2 3 9 19 16 7 6 7 7 8 6 5 6 5 3 4 5 5 5 4 4 4 4 4 5 5 4 4 5 5 4 4 5 4 3 1 2 2 4 3 2 2 1 1 0 0 1 1 2 3 4 4 2 3 4 3 1 1 1 0 2 2 1 1 1 2 5 7 5 4 2 2 2 2 2 4 4 5 5 5 5 5 5 5 4 3 3
3 3 2 6 13 11 5 3 4 5 8 9 9 9 8 5 5 7 7 6 5 5 4 3 3 2 3 2 2 3 3 1 1 1 1 1 2 2 4 5 4 3 2 1 1 1 1 2 2 2 3 4 4 3 0 2 1 1 1 2 2 4 5 3 1 3 5 5 6 4 3 3 2 2 4 5 4 5 5 4 3 2 3 4 4 4 4 4
3 3 2 4 6 6 3 2 3 3 5 8 8 9 10 9 6 7 8 7 8 7 5 3 2 2 1 3 3 4 4 3 3 2 1 2 2 1 2 4 5 4 3 2 3 2 1 1 2 4 6 6 7 6 4 3 2 2 4 6 7 7 7 4 4 7 6 4 5 7 8 8 8 7 5 5 6 7 6 5 3 2 3 4 4 4 5 4
1 2 3 4 4 5 4 4 5 5 3 4 5 6 10 11 7 5 6 5 5 6 5 4 4 4 4 5 6 6 6 6 6 5 5 3 2 2 2 4 5 3 2 2 2 2 1 2 4 6 8 8 8 9 9 8 7 7 8 10 11 10 8 8 9 8 4 3 6 9 9 9 9 8 7 4 4 7 6 6 6 5 5 5 4 4 4 4
2 2 1 2 3 5 7 7 8 9 8 6 4 4 7 10 9 6 5 4 1 2 4 4 6 9 7 4 4 5 5 6 5 5 5 3 3 3 2 3 3 3 3 1 1 3 2 4 5 5 8 9 9 9 9 8 7 8 9 11 11 12 12 12 11 8 5 6 9 9 10 11 10 10 10 7 4 3 5 5 4 5 6 6 5 5 5 5
2 2 2 1 1 3 5 6 8 10 11 8 5 5 6 7 8 4 2 3 2 2 5 5 5 5 3 1 0 3 3 3 3 2 1 2 2 2 2 1 1 2 2 2 0 1 2 3 3 3 6 9 9 9 7 6 7 8 10 12 13 15 15 12 10 10 10 11 12 12 13 14 12 10 7 3 2 2 4 5 5 5 6 6 5 4 4 3
1 1 1 1 1 0 1 3 7 8 9 8 7 7 5 6 7 3 2 3 3 3 6 6 3 4 4 4 1 3 2 3 2 1 3 3 1 1 1 1 1 1 1 1 1 2 1 1 0 1 2 6 8 6 4 4 7 9 11 14 16 16 15 12 12 11 11 12 13 13 14 13 8 3 1 2 3 5 4 4 3 4 5 5 4 2 1 1
1 2 1 2 2 2 1 1 4 5 6 7 8 9 6 7 8 4 0 1 2 2 3 5 6 5 3 2 2 3 2 5 5 3 3 3 2 1 0 1 3 3 1 1 0 1 1 1 0 1 1 6 7 4 2 4 5 8 12 18 19 15 12 12 11 9 10 11 12 12 11 9 3 2 3 3 3 5 3 3 4 4 5 6 2 1 1 2
0 2 3 1 2 2 3 2 4 5 5 6 8 8 7 7 7 5 3 1 3 2 2 4 6 4 3 4 3 1 2 6 5 3 3 3 2 1 1 1 2 3 3 2 1 1 1 1 1 1 2 6 7 3 1 1 3 8 13 15 16 14 14 14 12 12 14 12 10 9 8 4 3 4 4 4 4 4 2 2 3 2 2 4 3 3 2 4
Wind_Direction
316 308 300 303 298 295 294 293 293 294 297 297 302 305 305 306 307 311 314 318 321 322 322 322 324 326 328 330 330 329 324 319 316 295 255 269 280 288 286 263 274 259 203 172 158 182 183 200 207 187 193 155 192 215 126 153 183 186 198 217 246 246 257 329 331 328 356 339 336 322 327 322 313 311 113 10 261 251 270 268 258 247 240 237 245 244 206 191
306 299 297 301 299 297 293 293 296 295 294 293 297 302 302 301 302 302 305 309 312 314 314 317 319 322 327 329 332 330 321 319 309 274 262 274 271 271 282 263 264 223 183 176 181 204 206 210 196 181 203 188 173 151 137 163 162 203 237 237 246 251 275 317 311 320 350 326 318 316 322 330 327 330 15 287 276 279 283 279 278 270 258 246 243 230 194 187
307 305 303 298 303 301 290 286 289 291 289 291 293 294 297 296 297 298 301 304 306 311 311 313 316 320 327 329 334 332 324 320 305 273 259 253 224 230 285 270 263 207 181 183 197 223 245 284 221 181 216 243 195 152 154 157 155 208 221 243 249 262 286 301 307 318 324 320 316 309 333 332 306 307 296 272 280 278 274 275 282 279 272 276 274 233 189 190
307 313 311 306 313 314 307 294 289 294 292 292 294 292 292 291 294 297 299 298 302 307 309 311 315 320 326 333 336 334 328 314 297 110 130 139 147 123 33 340 291 178 174 188 236 244 258 294 278 209 236 260 238 193 185 175 156 203 196 231 259 288 301 302 308 313 320 338 328 307 316 305 290 290 269 276 284 263 255 262 268 275 285 303 316 315 238 205
303 308 309 307 318 320 314 304 298 299 297 296 297 296 295 294 298 300 300 300 302 306 310 311 314 319 326 334 332 334 335 311 112 130 148 146 148 96 22 0 301 175 171 193 254 250 252 263 258 244 244 263 267 240 217 200 183 236 236 246 262 282 287 283 292 308 358 345 304 289 291 294 297 291 262 255 262 253 255 268 273 280 291 295 300 308 302 277
307 306 310 316 325 324 318 309 304 301 300 300 299 299 298 299 300 300 302 302 303 306 308 310 313 320 328 334 333 335 328 277 214 182 191 218 250 318 343 330 249 179 172 206 232 225 233 238 233 237 237 241 256 253 249 221 194 226 248 254 263 271 276 280 290 302 87 305 285 280 289 298 294 284 273 254 253 256 257 263 270 273 276 281 286 287 283 279
314 313 321 329 327 323 323 316 310 309 309 307 305 305 304 304 303 302 303 303 306 307 308 312 314 321 328 335 343 303 242 260 273 247 226 243 263 296 297 265 224 184 180 217 221 212 218 226 224 229 246 246 251 249 259 260 235 240 247 263 275 277 276 277 287 286 240 270 273 277 290 284 278 282 285 269 261 264 265 265 268 270 271 273 275 271 266 265
317 315 322 325 322 322 323 317 312 314 313 311 310 309 309 307 305 305 304 305 307 308 309 311 313 321 331 344 303 275 232 254 274 253 229 245 264 277 263 235 209 186 189 217 215 218 220 229 238 244 257 252 261 270 287 302 274 259 260 266 269 268 276 282 287 285 273 268 265 269 273 267 270 281 281 274 270 269 267 268 268 269 270 268 265 262 260 258
315 315 320 316 318 317 313 310 308 309 308 308 307 307 306 304 304 304 304 306 306 306 307 307 308 311 314 338 300 282 248 252 260 245 240 259 269 259 237 222 204 187 199 224 225 237 229 232 251 271 298 278 282 292 304 299 262 259 278 295 296 291 296 298 294 286 277 270 256 251 262 265 270 283 275 266 266 267 262 260 262 265 264 259 260 259 253 250
307 311 317 315 316 311 307 307 306 306 304 304 304 303 303 302 304 303 304 304 302 301 301 301 301 290 279 251 250 262 255 251 248 241 257 273 271 230 203 209 209 194 210 232 229 242 244 257 282 33 351 308 296 291 282 269 275 329 320 314 305 297 291 282 276 272 267 263 252 241 255 265 269 276 272 263 262 267 266 263 260 264 266 262 266 267 262 253
299 306 313 314 316 313 313 310 308 308 307 308 307 307 306 305 306 305 306 303 300 299 299 298 291 270 248 221 236 251 247 233 227 233 268 280 263 205 187 192 213 205 220 240 233 247 266 298 348 28 315 347 317 286 275 289 337 2 344 317 293 286 280 270 266 264 259 250 236 225 250 271 275 248 252 260 265 267 268 271 268 261 264 267 268 268 268 263
293 303 309 315 319 317 318 312 310 313 315 315 313 313 311 309 309 308 306 303 301 299 297 297 278 227 213 243 238 239 244 244 240 253 276 271 223 202 191 190 202 210 232 259 253 263 287 341 18 320 271 342 318 286 279 337 355 350 350 304 284 281 273 266 261 256 252 236 173 158 258 272 261 239 245 254 258 264 261 263 268 262 259 259 262 266 261 262
293 302 306 314 318 315 318 315 315 322 325 321 319 317 312 310 308 306 305 303 302 299 297 294 244 179 194 265 235 234 240 243 248 264 268 257 234 216 211 207 197 204 232 270 331 358 341 353 351 281 283 290 290 300 215 286 321 283 258 260 280 288 273 268 263 247 244 212 119 114 229 255 260 260 265 266 259 286 283 272 273 267 266 267 270 277 272 269
292 298 302 308 308 307 310 313 324 331 330 326 324 320 315 312 308 306 306 302 300 295 290 263 186 154 191 261 249 233 231 236 246 260 259 241 206 208 223 223 209 209 224 252 332 347 0 1 332 287 282 264 271 316 304 274 267 267 260 244 259 278 272 276 274 206 170 215 119 121 227 249 272 276 281 301 351 302 295 282 276 270 270 272 270 273 273 275
288 293 295 299 298 298 306 319 333 334 333 331 329 325 320 315 310 309 308 306 308 296 278 207 176 162 275 261 247 226 213 226 218 201 220 177 164 196 201 207 211 213 221 230 268 314 353 4 318 273 270 249 249 284 291 282 260 257 264 258 229 237 265 279 279 175 149 274 149 130 225 243 251 270 293 330 324 302 294 279 276 274 274 277 277 275 274 278
281 284 285 292 295 300 320 331 335 335 335 334 330 327 322 315 312 315 315 314 317 176 135 154 178 183 300 265 179 178 193 202 178 185 204 176 176 176 145 153 174 192 209 222 231 261 259 206 194 292 276 253 221 239 270 281 265 240 236 256 245 245 260 271 289 175 139 115 189 185 226 247 245 271 288 297 289 283 281 275 272 272 275 280 282 282 279 283
274 275 283 297 299 313 338 335 336 336 334 334 330 328 323 313 311 323 338 358 100 131 118 16 184 192 271 255 183 182 161 163 178 196 215 180 175 156 144 150 162 168 171 172 185 188 177 176 163 101 237 245 245 250 274 267 255 246 235 250 251 260 283 295 321 9 127 135 215 217 227 247 249 256 267 270 265 262 264 269 270 273 281 282 284 294 291 316
272 276 284 296 307 331 338 338 341 336 333 333 330 330 321 300 295 324 15 89 111 117 353 322 213 205 225 208 211 155 130 152 170 180 187 173 168 163 169 171 152 158 162 169 183 174 170 179 179 207 228 228 237 230 238 240 243 266 270 279 284 285 301 300 300 322 310 275 265 256 252 260 268 275 281 277 271 265 262 269 277 285 290 288 302 329 345 44
270 276 282 297 318 334 341 350 347 340 336 334 336 333 319 285 271 264 228 192 145 195 310 196 190 233 304 254 165 123 116 142 153 154 166 164 164 174 189 186 159 173 177 166 193 182 167 167 173 207 234 224 223 212 221 237 247 266 274 281 288 287 290 290 287 291 294 285 274 272 276 287 300 299 287 276 271 266 262 272 282 283 287 301 350 30 49 62
267 275 287 302 328 343 354 354 348 347 340 340 347 335 312 286 275 243 207 223 234 263 292 247 211 247 294 302 124 127 137 155 159 162 170 164 159 170 188 190 175 199 216 179 180 174 158 181 197 202 219 229 236 235 239 249 256 271 279 277 279 281 280 285 285 279 279 279 276 285 295 302 305 290 276 271 272 273 270 266 265 272 294 16 51 59 66 69
259 275 277 282 333 354 351 346 346 349 345 343 342 325 343 25 319 8 306 253 240 250 266 264 253 260 276 277 140 141 139 191 197 165 171 171 161 171 180 187 181 191 226 207 160 106 160 201 217 213 224 236 245 255 266 273 282 287 283 279 278 273 273 274 275 277 280 281 289 304 297 297 295 281 274 274 277 275 262 251 257 284 30 60 60 63 69 67
250 251 236 255 323 347 338 337 341 343 352 350 329 324 59 34 330 91 301 279 260 256 260 261 260 259 264 262 157 142 110 227 212 159 170 175 171 195 173 176 197 194 217 205 153 93 204 229 234 227 232 243 250 257 266 268 270 273 273 277 275 267 278 274 266 275 303 64 306 308 297 290 282 274 274 276 273 261 252 254 302 63 68 55 54 64 67 60
250 228 217 257 311 341 334 329 334 338 350 359 345 6 49 330 317 55 232 275 276 255 248 248 249 249 251 237 137 138 224 231 232 181 174 172 168 226 190 182 213 218 219 201 186 196 202 226 233 226 229 242 252 253 257 261 254 248 254 266 269 268 274 268 277 326 359 335 300 300 293 284 276 273 274 267 251 258 276 57 68 75 76 65 63 62 60 60
254 233 228 262 314 336 330 321 329 328 310 343 4 8 355 274 243 126 225 268 265 242 232 243 252 264 265 233 115 170 233 225 248 182 174 179 171 196 215 208 214 231 233 213 209 220 231 248 238 209 223 236 251 257 256 261 264 254 245 250 263 270 269 274 332 349 343 320 303 308 300 268 265 270 277 264 239 285 35 73 71 66 69 68 66 60 57 60
255 247 244 255 297 321 318 318 327 285 256 267 179 324 335 298 197 168 283 269 249 247 351 35 82 46 10 32 102 214 247 218 23 90 158 199 218 165 215 224 215 233 237 230 228 232 248 259 233 193 234 250 252 258 261 264 281 274 261 280 300 307 314 332 356 360 351 316 307 13 349 268 285 311 308 290 291 37 56 68 63 57 60 58 59 57 55 55
261 258 253 238 253 298 309 313 304 235 271 243 217 302 321 306 213 177 30 285 256 224 80 160 150 184 161 127 137 227 264 214 54 61 130 315 307 225 265 210 193 247 251 257 255 250 247 230 102 110 264 281 268 267 271 265 272 269 278 340 356 9 10 6 7 8 336 274 274 346 328 265 286 305 277 271 291 77 67 63 61 60 58 57 58 56 55 54
261 256 249 234 238 268 281 284 253 250 263 207 227 284 315 311 269 198 219 278 265 147 114 230 259 166 136 140 190 219 232 157 100 65 107 315 270 190 276 180 145 249 215 41 5 285 221 173 83 70 234 263 258 263 262 230 238 240 254 348 13 29 4 336 337 264 240 268 277 251 228 254 271 252 252 249 128 89 75 68 68 67 64 64 64 59 58 57
261 251 242 234 239 249 241 244 279 269 245 239 266 284 316 315 228 245 264 265 278 119 126 165 111 113 105 138 234 239 132 148 145 71 27 312 249 94 239 237 280 256 150 142 182 275 38 161 153 142 176 220 228 246 253 190 221 220 206 352 15 6 261 258 242 243 254 286 278 224 188 232 269 248 251 229 118 95 91 90 80 73 69 67 68 63 57 54
258 252 240 235 243 253 243 237 241 250 263 291 301 299 316 322 194 276 236 237 295 78 71 65 111 137 126 153 219 204 164 175 186 85 91 245 238 315 246 246 306 304 175 185 208 239 55 135 161 144 184 220 213 234 339 167 188 205 239 304 300 249 233 233 229 240 276 266 250 222 184 190 284 271 276 94 111 116 110 100 88 78 69 60 64 63 55 51
254 253 243 236 241 242 228 231 238 245 257 270 288 300 295 140 174 210 202 227 356 61 78 109 97 140 163 183 198 187 188 135 93 127 172 214 168 264 272 179 334 312 235 228 245 249 139 93 27 174 219 224 153 102 14 33 139 176 285 310 297 264 230 213 210 194 289 258 256 242 196 177 274 293 356 52 121 143 132 123 109 87 72 62 57 57 56 51
249 250 243 236 234 222 203 216 238 241 247 256 270 271 214 139 135 206 210 233 356 27 119 150 90 148 195 213 173 184 185 121 128 157 187 167 148 206 277 249 15 324 304 298 273 252 169 135 6 211 229 212 112 99 5 40 73 122 269 312 320 297 234 167 129 127 216 249 294 327 173 171 217 290 33 53 89 126 131 137 125 102 83 72 60 57 57 52
234 236 233 225 218 209 199 194 241 243 226 229 246 250 217 117 225 219 223 301 218 234 334 110 124 190 212 320 62 180 143 128 152 170 160 162 181 196 211 210 160 153 263 247 256 257 201 201 204 184 248 193 135 125 351 42 75 153 197 212 322 324 277 172 249 187 216 227 198 44 38 129 232 285 308 63 66 71 92 111 118 115 105 90 72 63 59 56
209 213 210 206 202 203 207 212 279 265 177 177 220 272 95 195 225 190 180 219 225 159 57 54 36 24 51 41 61 109 78 132 136 77 18 52 303 227 220 222 180 139 249 208 34 295 270 224 192 156 339 197 164 158 178 211 172 178 194 185 190 298 308 255 267 259 241 229 220 37 24 317 230 280 306 94 86 72 85 94 103 108 106 101 94 82 68 63
195 193 194 199 202 207 209 207 215 168 155 156 190 192 175 218 230 153 193 208 146 124 90 80 129 127 117 237 229 151 168 231 146 127 46 104 117 249 234 227 202 166 179 83 338 221 250 287 185 166 192 171 179 195 157 114 157 197 213 147 175 196 235 247 250 258 262 264 285 322 351 229 201 232 83 100 98 88 90 95 98 97 98 98 96 86 72 62
203 199 200 203 207 211 206 199 196 161 141 139 188 187 204 222 209 197 222 210 122 161 105 63 117 172 223 232 217 183 160 230 174 156 188 192 213 237 218 206 190 166 121 157 258 172 220 255 185 144 145 159 174 201 125 89 43 274 30 76 180 204 196 246 258 236 270 304 281 277 262 252 192 111 107 102 95 92 92 98 99 94 91 87 80 72 62 52
232 230 229 223 222 218 203 195 191 167 148 148 205 208 216 221 205 204 213 119 138 142 115 56 101 169 238 239 215 198 124 94 177 173 207 208 230 237 231 220 175 175 168 172 237 187 200 244 123 79 17 187 177 156 132 126 186 28 58 161 247 232 141 131 296 288 90 273 260 232 254 278 253 122 118 105 94 90 87 87 90 87 83 79 68 64 56 47
273 275 262 248 240 222 202 196 186 167 158 176 211 220 216 206 221 231 171 102 135 117 117 190 182 181 222 226 200 183 87 45 170 170 229 219 234 228 232 253 181 184 193 184 239 250 208 273 211 146 214 254 40 85 90 32 107 126 183 216 260 351 67 117 279 332 203 251 259 242 259 262 232 216 145 125 110 99 91 81 84 83 80 79 71 66 57 50
319 317 285 256 242 225 203 197 182 161 162 210 219 228 221 193 212 216 156 125 129 113 140 205 206 175 194 206 211 161 115 285 191 178 225 220 221 212 224 258 151 167 211 196 201 247 128 284 269 195 195 237 42 69 69 359 63 130 192 247 84 50 318 139 148 205 236 255 261 247 260 256 223 227 173 151 133 120 122 112 107 104 98 96 90 84 76 63
151 317 289 247 231 220 198 185 172 159 194 219 222 228 219 219 232 223 178 156 143 127 168 216 212 195 208 220 247 192 164 190 202 199 202 197 226 258 38 346 33 25 347 301 191 210 120 180 284 8 69 111 72 80 180 244 26 85 156 321 65 145 207 200 185 206 228 255 264 260 268 267 256 308 192 142 134 135 139 135 129 127 125 129 131 130 135 152
176 230 272 188 199 201 181 169 171 190 215 218 225 227 214 230 244 235 205 190 190 172 194 221 207 208 231 234 256 249 197 201 214 215 210 214 258 3 51 23 29 18 356 11 48 14 71 202 227 356 23 82 137 187 188 208 204 92 204 245 210 206 231 264 253 229 214 249 260 261 265 256 270 329 58 107 116 127 129 130 136 139 143 156 164 168 177 185
198 250 227 161 176 177 162 165 199 210 221 232 234 236 235 226 199 206 234 337 257 233 224 234 219 220 235 238 248 247 231 241 242 239 235 227 242 255 45 351 7 25 346 15 47 15 331 230 240 271 273 219 205 184 152 167 144 124 173 216 214 220 190 272 256 233 210 232 239 250 259 242 223 296 77 101 109 114 124 138 147 156 163 164 165 167 170 170
215 233 148 151 169 167 157 180 215 194 224 236 231 235 226 180 142 175 147 46 262 259 285 250 236 234 232 235 244 241 237 241 228 233 244 225 239 322 5 305 348 35 48 90 74 40 76 84 294 266 261 257 265 287 113 138 126 125 183 194 159 139 139 231 255 250 231 259 269 261 257 230 214 281 66 110 124 125 138 153 152 163 165 153 150 149 146 139
217 205 129 149 171 173 167 206 213 204 230 234 236 239 207 178 206 191 177 187 197 203 213 219 224 231 230 231 240 240 236 230 222 224 224 220 245 41 3 321 2 32 38 97 124 44 68 81 254 263 278 286 285 308 56 71 89 118 205 156 134 161 180 212 242 244 236 279 292 273 261 243 229 277 320 115 129 133 152 162 160 165 155 142 148 141 130 122
220 201 125 163 182 187 195 212 207 213 222 223 235 235 224 217 209 197 200 199 189 191 208 219 224 230 230 216 220 233 231 231 238 229 212 204 137 73 2 355 41 52 14 19 224 334 23 186 203 247 284 296 285 282 35 24 35 78 318 10 105 274 281 258 196 190 209 228 232 239 255 245 193 226 254 198 161 165 179 169 152 150 148 149 150 140 141 148
219 197 123 169 191 205 226 224 223 228 219 219 229 231 233 233 209 207 215 209 203 209 217 220 211 230 251 206 187 238 237 211 234 213 139 130 119 75 14 15 51 84 76 34 10 60 188 206 165 190 241 255 261 253 217 48 64 107 261 266 260 247 248 263 280 253 252 237 230 243 263 262 244 222 232 229 216 209 193 158 117 120 147 146 143 149 165 168
215 204 157 149 195 226 256 266 271 264 222 215 224 226 228 231 219 203 208 217 221 218 223 230 178 124 273 228 215 238 228 192 189 207 160 130 133 103 50 51 59 75 108 63 19 50 110 252 223 223 245 253 261 274 301 335 297 267 282 278 270 252 237 239 249 251 269 294 270 260 264 274 279 272 255 221 211 223 215 182 175 187 163 147 155 168 169 170
246 230 190 162 182 218 231 235 232 242 253 235 227 220 220 226 227 200 193 215 232 222 223 230 207 192 208 221 228 234 228 214 207 217 220 190 129 103 109 89 74 80 126 90 35 95 126 248 238 236 250 256 264 277 293 302 283 271 277 272 269 268 255 244 248 257 298 313 265 259 270 279 280 285 297 289 238 235 229 205 189 181 171 165 168 170 171 185
245 285 230 182 190 205 215 217 211 222 245 256 258 250 233 225 221 209 190 188 211 238 215 211 222 224 221 224 228 228 234 232 220 218 217 186 115 122 135 86 96 152 155 102 76 109 131 239 246 248 257 260 265 270 272 279 284 282 277 270 270 269 259 252 256 261 263 259 262 272 278 277 279 284 292 300 291 242 204 177 152 148 159 166 168 174 188 205
242 279 286 298 265 214 214 200 187 207 231 243 258 262 257 244 229 214 154 161 178 222 214 215 223 219 219 12 223 223 234 227 222 222 149 94 86 130 138 65 94 167 151 123 156 133 161 239 251 261 270 268 266 269 276 290 294 285 276 273 269 264 261 263 266 262 256 259 269 277 274 272 275 279 280 305 21 74 115 118 121 141 155 158 162 171 184 194
286 324 302 326 323 330 307 193 170 188 220 230 242 248 257 262 248 228 104 156 188 199 212 216 184 112 75 58 80 252 247 116 131 161 97 100 120 133 160 206 171 149 118 111 263 279 243 225 109 61 302 278 265 264 271 266 266 271 274 270 263 263 268 269 265 262 263 263 262 263 266 268 272 282 126 119 84 80 92 103 118 135 127 114 109 102 100 100
344 0 324 320 281 173 123 216 182 192 215 216 227 238 236 239 242 242 46 152 167 181 200 182 150 114 92 119 170 259 248 117 128 146 118 130 158 132 3 159 131 137 152 145 51 310 265 224 57 68 270 267 269 272 253 250 267 272 265 258 256 258 262 259 257 257 257 261 263 261 261 260 247 123 131 142 96 79 80 72 67 77 100 106 111 260 173 104
92 280 239 278 298 189 162 182 193 202 219 213 218 229 229 232 237 233 234 96 71 44 52 117 141 140 152 175 179 201 112 108 115 115 106 120 120 93 107 111 125 147 156 165 157 157 180 169 213 243 245 262 269 266 140 171 264 261 254 251 250 251 252 254 258 255 251 255 261 260 255 232 157 144 152 133 89 75 62 45 48 53 121 141 185 219 172 116
Height
818 818 818 817 817 817 817 817 817 816 816 816 815 815 815 815 814 814 814 813 814 812 812 812 811 811 810 809 808 807 806 805 804 804 803 800 799 800 799 800 800 800 801 802 803 803 803 804 803 803 805 805 805 805 805 805 805 811 817 825 826 819 811 802 798 797 797 797 794 791 790 794 796 791 788 788 789 790 788 784 781 778 775 773 771 771 772 773
818 818 817 817 817 817 817 817 816 816 816 816 815 815 815 815 814 814 814 813 813 813 812 811 811 810 809 809 808 807 805 803 803 801 799 797 798 799 799 799 800 800 800 802 802 802 803 803 802 803 805 807 806 805 808 806 807 814 817 821 820 811 802 794 794 792 792 796 795 792 790 792 794 791 788 792 794 791 791 786 780 780 775 770 767 768 769 770
818 818 817 817 817 817 817 816 816 816 815 815 815 815 815 814 814 813 813 813 813 812 812 811 811 810 810 809 808 807 805 803 802 799 796 796 797 798 798 799 799 799 800 801 802 802 802 801 801 803 806 808 806 806 810 808 809 811 815 822 815 803 798 792 791 790 790 792 793 793 791 792 793 789 789 793 794 793 793 788 783 782 777 771 766 766 768 768
817 817 817 817 817 816 816 816 816 815 815 815 814 814 814 813 813 813 812 812 812 812 811 811 810 810 810 809 808 808 804 805 803 797 795 796 797 797 798 798 798 799 800 800 802 802 801 801 801 802 806 809 805 805 809 808 808 808 811 818 808 799 800 795 791 790 788 789 793 794 793 794 790 787 789 792 796 795 790 784 781 779 775 771 768 765 766 767
817 817 817 816 816 816 816 816 815 815 814 814 814 813 813 813 813 812 812 812 811 811 811 810 810 809 809 808 809 806 806 811 804 795 796 796 796 797 797 798 798 799 799 800 801 801 801 801 801 804 808 811 808 806 807 803 803 807 806 806 801 800 802 796 790 790 789 790 792 794 795 793 788 787 788 791 796 793 784 779 775 773 771 770 768 766 765 765
817 816 817 816 816 816 816 815 815 814 814 814 813 813 812 812 812 811 811 811 810 810 810 810 809 809 809 808 808 806 810 813 800 794 797 795 796 797 797 798 797 798 799 800 801 801 802 801 804 808 809 810 810 808 805 798 799 807 805 800 798 798 799 794 789 790 790 792 794 794 793 790 790 791 787 788 789 782 776 773 770 768 766 766 765 765 764 763
816 816 816 816 816 816 815 815 814 814 814 813 813 812 812 812 811 811 810 810 810 809 809 809 808 808 808 808 808 807 810 806 795 795 797 795 797 796 797 797 797 798 799 800 800 801 802 803 806 807 808 810 808 805 801 796 795 803 804 800 798 797 796 792 789 789 790 793 792 791 791 791 794 793 787 785 781 773 771 768 765 764 762 762 763 763 762 761
816 816 816 816 816 815 815 815 814 814 813 813 813 812 812 811 811 810 810 809 809 809 808 808 808 808 808 808 807 808 808 801 794 795 795 795 796 795 797 797 797 798 798 800 799 800 801 804 805 804 808 808 803 802 799 798 799 800 802 799 797 795 793 790 789 789 789 790 789 789 792 792 791 790 787 783 776 770 767 765 763 762 761 761 760 760 759 758
816 816 816 816 815 815 815 814 814 814 813 813 812 812 811 811 810 810 809 809 808 808 807 807 808 807 808 807 808 810 804 795 794 794 794 795 795 795 796 796 797 798 798 800 798 799 801 803 803 802 807 805 801 802 800 804 805 799 799 798 796 796 793 791 791 790 789 787 787 791 793 790 787 788 786 778 771 766 763 763 761 760 760 759 758 756 755 755
816 816 816 815 815 815 814 814 814 813 813 813 812 811 811 810 810 809 808 808 807 807 806 807 807 806 808 806 809 811 799 792 794 793 793 794 794 795 796 796 798 798 799 799 798 799 799 801 800 799 804 803 801 802 801 804 802 796 798 798 797 797 794 793 792 788 787 786 785 790 792 787 784 789 787 774 766 763 762 762 759 759 759 757 756 754 753 752
816 816 816 815 815 814 814 814 813 813 813 812 811 811 810 809 809 808 807 807 806 806 806 806 806 806 807 807 810 806 795 793 794 792 794 794 794 795 796 797 798 798 799 798 799 798 798 799 797 799 804 804 802 802 800 799 797 796 799 800 798 797 794 790 789 785 784 784 781 784 788 786 785 789 785 771 764 763 762 762 759 759 757 755 754 752 751 750
816 816 815 814 814 814 813 813 813 813 812 811 811 810 809 808 807 807 806 806 805 805 804 804 805 805 806 807 805 799 793 794 793 793 794 793 794 795 795 797 797 799 799 798 799 798 798 798 798 803 804 802 804 804 801 798 797 798 801 806 802 797 794 787 784 780 780 781 776 781 793 792 787 785 776 767 763 762 762 761 759 757 755 753 751 749 749 747
816 815 815 814 814 813 813 813 812 812 811 810 810 809 808 807 806 806 805 804 804 803 803 803 804 804 807 805 797 792 793 793 793 793 793 793 794 795 795 797 797 798 799 799 799 798 799 799 800 803 801 803 806 803 800 798 799 801 802 807 805 802 797 783 778 775 775 780 774 783 802 797 783 777 769 763 761 761 762 761 758 756 752 750 749 749 748 746
815 815 814 814 813 813 812 812 812 811 810 810 809 808 807 806 806 805 804 803 803 803 802 803 804 805 807 801 791 791 792 791 793 792 792 793 794 795 796 796 797 798 798 799 799 799 800 800 801 803 801 803 802 799 800 801 801 802 803 804 805 811 802 780 774 773 776 783 775 784 804 798 782 775 767 762 761 761 763 761 757 754 750 749 748 748 747 745
814 814 813 813 813 812 812 812 811 810 810 809 808 807 806 805 804 803 803 802 802 802 801 802 803 804 806 798 789 791 791 791 792 791 792 793 794 795 795 796 797 797 798 799 799 800 800 801 803 805 803 800 800 805 808 807 802 800 808 810 805 809 801 781 773 772 778 784 779 786 802 796 782 773 766 762 762 763 764 761 756 752 749 747 747 747 747 744
813 813 813 813 812 812 812 811 811 810 809 808 807 806 805 804 803 803 803 801 802 801 801 803 803 804 805 797 790 790 791 791 791 791 792 792 794 794 795 796 797 797 798 798 799 800 800 802 803 805 804 802 804 810 813 814 809 801 807 812 805 803 799 786 775 769 774 782 782 786 793 789 779 772 766 764 764 764 763 759 753 750 748 746 746 746 745 744
813 813 812 812 812 812 811 811 810 809 808 807 806 805 804 803 803 803 802 801 802 801 802 803 802 804 802 793 791 791 789 790 790 791 791 792 793 794 795 796 796 798 798 798 800 800 800 802 804 804 805 806 806 808 818 824 818 806 802 804 800 795 794 791 782 772 773 780 783 784 787 786 778 771 768 764 763 763 761 757 751 749 748 746 746 745 745 745
812 812 812 812 811 811 811 810 810 809 808 807 805 804 803 803 802 802 802 802 802 802 804 802 803 809 803 792 791 790 788 789 790 790 791 791 792 793 794 795 796 798 799 801 801 800 802 801 803 807 807 808 807 811 823 823 813 807 804 802 800 794 793 794 789 779 775 778 781 783 784 781 774 770 768 763 759 760 758 754 749 748 748 746 746 747 748 749
811 811 812 811 811 811 811 810 809 808 807 806 805 803 802 802 802 802 802 803 803 802 803 801 801 804 798 788 787 788 788 789 789 790 791 791 792 793 794 794 795 797 800 804 803 800 802 804 807 813 812 808 805 806 810 807 801 800 799 800 801 799 796 791 786 779 775 780 781 780 781 777 773 771 767 761 756 756 756 753 750 749 748 748 750 751 752 754
810 811 811 811 811 811 810 810 809 808 807 805 804 803 802 803 803 802 802 802 800 796 794 794 793 792 788 784 785 788 788 788 789 790 790 791 792 793 794 794 795 798 800 803 803 799 800 809 813 813 810 803 797 794 793 791 791 793 795 797 797 799 797 789 783 776 772 780 781 777 778 777 775 771 764 758 755 754 755 753 750 748 749 752 753 753 754 758
809 810 810 811 811 810 810 809 808 808 807 806 804 803 803 805 806 806 805 800 794 791 790 788 788 787 784 783 784 786 787 788 788 789 790 790 791 794 794 794 799 804 800 797 800 798 800 811 811 803 799 793 790 787 786 787 788 791 795 797 797 798 795 786 781 776 772 780 783 776 779 780 775 769 760 755 756 754 751 749 748 748 752 755 754 756 759 763
809 809 809 810 810 810 809 809 808 808 807 806 805 804 804 806 807 807 807 803 793 788 788 785 785 784 781 782 783 784 786 789 789 789 789 789 791 794 793 793 800 801 795 793 801 805 808 811 803 793 790 788 787 786 786 788 789 793 795 798 801 797 792 786 778 774 773 782 785 780 782 782 772 763 756 753 754 751 745 745 748 752 757 759 759 761 765 768
808 808 809 809 809 809 809 808 808 807 807 806 805 805 805 806 806 806 807 808 797 786 784 784 783 782 780 781 782 783 787 789 789 788 787 789 791 792 791 793 796 795 792 793 800 808 812 804 791 786 786 787 788 786 787 789 789 793 797 801 803 795 794 794 783 777 778 782 784 783 784 781 771 761 754 750 748 745 744 748 752 756 761 766 767 768 771 773
807 807 808 808 809 809 808 808 807 807 807 807 806 806 806 806 806 806 806 805 796 784 781 781 780 780 781 782 782 784 787 785 784 785 785 787 788 789 790 790 792 794 792 790 793 800 801 790 781 782 784 787 790 789 788 792 794 794 794 798 799 792 792 793 788 784 784 783 782 783 788 783 769 762 755 747 745 746 750 754 759 762 766 769 771 774 777 778
806 807 807 808 809 808 809 808 807 807 807 807 807 806 806 807 805 806 807 804 796 785 781 780 780 782 781 782 784 784 784 784 784 785 784 786 787 788 788 786 789 795 791 787 790 794 791 783 779 784 786 786 791 793 790 794 800 798 793 793 794 791 791 792 791 793 798 797 786 786 802 794 767 760 759 749 748 756 760 763 769 772 772 774 777 780 782 783
805 806 806 807 808 808 809 808 807 808 807 807 807 805 807 806 805 806 806 808 801 786 783 784 782 784 783 783 784 784 787 788 786 786 786 787 787 787 790 786 787 792 789 786 789 789 786 782 782 787 790 790 793 796 791 793 803 804 797 794 793 792 794 796 796 801 807 805 789 787 807 805 779 770 764 752 755 767 770 772 776 778 779 781 784 785 786 788
804 805 806 807 807 808 809 807 807 807 807 807 806 806 807 804 806 805 806 816 805 782 782 786 783 784 783 783 783 786 793 791 787 787 786 788 787 786 792 790 788 790 785 789 797 791 784 784 788 791 793 796 799 799 791 790 801 804 796 794 793 793 797 798 799 805 804 800 794 788 797 805 795 779 760 750 762 774 776 780 781 781 784 787 788 790 790 791
802 804 805 806 806 807 807 806 807 806 806 807 805 807 806 804 807 804 811 824 802 774 779 784 782 783 782 783 784 786 791 788 789 792 787 788 789 788 793 791 789 789 784 792 803 793 784 788 791 792 797 800 798 794 788 787 795 798 795 794 793 794 798 796 799 803 799 801 804 791 788 801 796 774 753 749 766 779 780 783 784 785 789 789 790 792 792 793
800 802 803 804 804 805 805 806 806 805 805 805 805 807 805 805 805 804 818 822 791 772 780 782 783 784 782 785 785 784 786 786 789 792 788 789 790 790 794 791 787 788 785 790 797 791 787 790 789 790 797 797 791 789 788 788 792 796 795 794 793 794 795 796 800 802 801 807 807 791 786 799 793 768 753 755 768 780 782 784 787 789 792 793 793 794 795 796
797 799 800 802 803 803 804 804 804 804 805 805 806 805 804 805 807 814 825 813 788 780 782 782 784 784 783 786 786 783 785 786 788 790 790 790 790 790 791 789 789 790 789 789 791 788 787 790 789 789 790 787 787 792 794 792 792 795 795 795 796 795 793 797 798 799 807 808 799 786 780 791 794 772 759 761 765 772 779 784 789 792 795 797 798 797 798 798
795 797 798 799 800 801 802 802 801 802 803 805 806 805 805 806 810 821 820 799 789 789 783 783 786 783 784 787 786 785 784 786 787 790 792 792 793 794 793 794 794 795 798 796 793 789 789 793 791 786 784 783 787 793 796 796 794 795 796 799 802 797 795 802 802 803 814 808 790 781 776 784 794 776 762 765 763 764 773 780 789 795 798 800 801 801 801 800
793 795 796 797 798 799 800 800 799 800 801 804 807 805 806 812 816 817 808 792 792 793 785 786 786 782 785 785 785 787 786 787 787 789 792 793 795 795 794 794 793 797 802 798 794 793 791 790 786 784 783 784 788 794 797 798 797 798 799 804 809 805 801 808 809 806 810 802 787 781 782 789 790 771 760 767 771 770 773 779 788 794 797 800 802 804 803 801
792 793 795 796 797 798 799 798 799 801 800 803 808 805 809 820 817 805 798 792 792 790 784 787 786 784 787 787 787 787 787 789 789 790 792 792 795 792 788 787 785 792 797 794 794 796 792 786 783 787 787 783 786 793 797 796 798 801 799 801 807 809 812 814 808 802 800 795 786 783 790 796 787 771 765 773 780 781 781 785 790 793 796 800 801 804 804 802
792 793 794 795 796 796 796 798 799 800 801 803 808 809 814 820 807 794 793 789 787 788 787 787 788 788 789 790 788 785 788 792 790 793 795 795 799 796 789 786 784 786 791 794 796 796 798 793 785 785 784 782 783 785 786 788 793 797 792 793 799 801 810 813 807 805 804 800 793 789 794 790 779 776 777 780 784 785 787 790 792 795 798 800 801 804 804 804
793 794 794 794 795 795 795 797 799 800 803 805 808 811 814 811 798 793 792 784 784 789 789 788 788 791 792 789 786 782 785 791 790 792 796 795 796 792 785 784 785 786 790 798 796 792 800 794 779 779 779 779 782 779 780 785 792 796 793 795 799 793 794 803 803 800 805 810 802 794 791 777 769 778 782 784 788 789 792 794 795 797 799 801 804 805 805 806
794 794 795 794 794 794 794 796 798 799 802 805 809 809 805 798 790 788 784 780 782 786 791 793 791 795 797 790 787 783 784 790 790 792 793 789 788 785 780 779 781 784 786 792 791 789 798 792 777 781 782 778 780 778 779 784 790 798 799 797 796 789 789 800 805 800 806 816 804 789 789 778 770 780 785 787 792 793 796 798 798 801 803 805 807 807 808 809
794 795 795 794 793 793 793 795 797 799 801 804 806 801 793 788 783 780 779 779 782 783 789 796 793 793 795 792 790 787 789 792 791 793 792 786 784 780 778 776 774 778 778 781 785 783 790 792 780 779 783 780 779 779 780 782 786 795 799 795 792 791 792 798 809 811 813 817 800 784 789 785 778 783 787 789 794 798 801 803 803 805 807 809 809 809 811 811
794 796 795 792 792 792 793 795 796 799 801 802 800 793 787 784 778 776 777 778 781 783 790 796 791 788 790 792 790 788 795 798 792 793 793 788 784 775 774 776 773 774 773 774 783 782 785 795 784 774 779 782 780 783 787 787 788 791 794 793 793 799 801 800 809 816 815 814 801 786 784 781 775 778 782 787 794 800 803 804 806 807 808 809 809 810 811 811
795 798 794 789 789 791 793 795 796 799 800 797 795 790 784 781 777 774 775 776 779 784 790 790 787 788 789 789 788 787 794 796 790 791 791 787 783 775 774 778 777 778 775 773 781 781 783 795 792 780 780 783 783 789 793 791 791 793 794 793 793 798 800 798 802 805 806 808 801 793 786 776 774 777 777 782 791 797 800 802 804 806 807 808 809 810 811 812
795 797 792 786 788 790 793 797 797 798 796 790 788 786 781 779 778 774 773 775 778 782 786 786 786 789 789 786 786 785 786 788 786 786 786 781 780 780 781 782 781 782 780 777 780 781 781 790 795 788 784 787 788 788 789 788 790 794 797 797 797 796 795 796 797 793 798 805 801 798 792 777 778 785 780 781 789 793 797 801 803 804 805 806 807 809 810 811
794 795 789 785 788 789 792 797 796 794 792 786 783 782 779 778 778 777 775 776 777 778 781 784 785 787 788 787 785 784 784 786 785 784 783 779 779 783 787 787 784 784 784 783 784 787 787 790 795 793 790 791 787 781 782 783 784 789 794 795 795 795 797 803 802 790 789 795 793 794 789 777 784 790 781 783 790 791 795 799 801 803 803 804 805 806 807 808
793 792 787 785 788 788 791 794 791 790 789 784 780 780 779 778 778 778 778 778 780 781 781 783 783 784 785 785 784 783 784 786 784 783 784 781 778 783 789 789 786 785 786 788 790 792 793 795 798 796 791 788 783 779 781 782 782 786 791 790 791 796 799 804 803 793 791 791 788 790 786 781 791 795 784 785 789 789 793 796 797 800 800 802 804 805 806 807
789 788 786 786 788 788 791 793 789 788 786 779 776 777 776 777 778 779 779 780 782 783 784 783 782 782 781 781 782 782 783 784 782 781 782 781 783 791 793 789 787 787 788 790 792 793 796 799 802 800 793 786 781 780 784 785 785 789 792 791 793 797 798 802 803 804 807 802 795 797 791 783 793 797 789 788 789 788 791 791 794 798 799 801 804 804 806 807
785 784 785 787 787 787 789 787 784 785 783 779 778 777 776 776 777 778 779 780 780 781 783 782 780 780 778 778 781 781 782 785 783 780 780 782 788 796 794 788 789 791 792 794 794 795 800 803 807 810 805 798 791 789 791 792 792 795 797 796 797 797 798 804 805 808 811 801 794 801 795 781 790 799 794 791 791 791 791 791 792 795 798 801 803 804 806 806
783 782 783 785 786 786 784 780 779 779 778 779 780 778 777 775 773 774 776 777 777 777 780 779 778 779 778 779 782 782 782 786 786 784 784 786 792 797 794 791 791 793 798 799 795 796 802 803 805 812 813 809 802 795 794 796 796 798 799 797 798 798 798 801 804 806 806 795 792 801 794 780 786 796 796 794 793 791 790 792 794 795 797 800 801 803 805 805
781 779 781 786 786 785 782 780 781 780 775 776 778 776 776 775 771 770 772 775 775 774 776 777 776 780 782 782 785 786 784 785 786 786 786 788 793 798 797 795 794 797 800 799 796 798 803 802 801 806 808 805 801 794 791 795 799 800 800 797 797 796 796 799 803 804 801 798 798 795 788 783 783 784 786 790 792 791 790 792 796 797 798 800 801 803 803 804
781 776 775 781 784 782 782 781 781 780 775 773 774 770 770 772 770 770 772 774 773 772 775 776 777 781 784 783 785 786 783 783 785 786 786 786 792 799 799 797 798 801 800 798 797 799 805 807 803 802 804 801 799 797 794 797 801 801 800 798 795 794 794 798 801 799 797 803 802 789 783 788 786 779 779 783 785 788 789 790 795 796 798 800 801 802 803 803
781 775 769 771 776 776 777 777 778 779 777 774 771 767 767 768 768 770 774 775 774 773 776 779 778 778 780 781 784 785 782 782 784 784 784 787 792 799 800 799 801 802 800 801 800 799 807 810 803 803 806 802 799 799 797 797 800 799 798 797 795 794 794 796 798 796 796 801 797 788 787 791 787 782 781 781 781 782 785 788 792 795 797 799 800 801 802 803
778 776 771 769 771 771 770 770 774 778 779 777 775 770 768 768 766 767 771 775 778 777 776 780 779 778 781 783 786 786 784 786 786 784 787 793 796 798 800 802 803 802 802 803 801 801 808 810 805 806 809 805 803 802 800 802 805 803 801 799 796 794 793 795 797 794 794 795 792 790 791 789 784 781 781 784 784 783 785 789 791 793 796 797 799 800 800 801
777 778 775 772 771 771 770 769 772 777 778 779 779 773 771 771 768 767 769 774 781 779 775 778 782 784 787 788 789 790 788 791 792 790 793 798 798 799 801 801 802 803 805 806 804 803 808 812 809 811 814 811 806 805 805 806 807 807 805 800 795 794 794 796 796 793 794 795 790 790 792 787 782 782 785 788 788 786 789 791 791 792 795 796 798 799 799 800
779 779 779 778 775 771 773 772 771 775 777 777 778 774 772 772 769 769 771 773 776 776 774 778 784 789 792 792 792 793 792 795 797 795 797 799 798 800 801 800 801 804 807 808 807 806 810 814 811 812 820 815 805 807 810 807 808 813 809 800 795 797 797 794 792 791 791 791 790 792 791 786 784 787 789 789 789 790 791 791 792 794 795 796 798 798 798 800
779 780 779 782 778 770 771 773 772 774 773 770 771 771 771 771 768 770 774 775 776 777 777 779 783 788 792 792 793 793 792 794 797 798 799 800 799 800 801 801 802 804 806 807 807 807 810 815 814 814 821 817 807 808 812 813 820 818 802 792 793 795 794 792 790 788 785 786 789 790 787 784 786 788 789 790 792 794 794 793 795 795 795 796 797 797 798 799